User: anonymous   Login
Location: Hickory_Viewmont
(35.7830°N, 81.3170°W)
Time: 22:04:03
(UTC-04:00)
Language:

Okean-O - Orbit

View from above orbital plane
View from above orbital plane
View from above satellite
View from above satellite

Ground track
Ground track

The orbit data is extracted from the following two-line orbital elements,

1 25860U 99039A   15089.48557108  .00001501  00000-0  22593-3 0  9993
2 25860 098.0856 057.4498 0001165 107.7367 002.9137 14.75909808844379
Epoch (UTC): 30 March 2015 11:39:13
Eccentricity: 0.0001165
inclination: 98.0856°
perigee height: 641 km
apogee height: 643 km
right ascension of ascending node: 57.4498°
argument of perigee: 107.7367°
revolutions per day: 14.75909808
mean anomaly at epoch: 2.9137°
orbit number at epoch: 84437

The dashed part of the orbit path shows where the satellite is in the earth's shadow,  

DLR